Date String (YYYY-MM-DD hh:mm:ss) UTC,Instrument flags,absolute air pressure of the measurement (hPa),sample flow rate (lpm),inlet stack bypass flow (lpm),air temperature of the measurement (°C),ambient temperature measured by the external sensor (°C),aerosol sample conditioner tube jacket temperature (°C),OPC LED temperature (°C),internal box temperature (°C),relative humidity of the measurement (%),span deviation,mass concentration of particles derived from Lorenz-Mie calculation of OPC scattering (μg/m³),mass concentration of particles derived from Lorenz-Mie calculation of OPC scattering (μg/m³),mass concentration of particles derived from Lorenz-Mie calculation of OPC scattering (μg/m³)
DateTimeUTC,F1_M11,P_M11,Q1_M11,Q2_M11,T1_M11,T2_M11,T3_M11,T4_M11,T5_M11,U1_M11,ZSPAN_M11,X0_M11,X2_M11,X1_M11
2023-08-05 04:00:00,SystemResetWarning,0833.8,5.00,000.00,029.2,028.0,000.0,037.6,031.0,23.2,0000.0,0004.92,0002.99,0002.12
2023-08-05 04:01:00,SystemResetWarning,0833.8,4.99,000.00,029.3,027.8,000.0,037.6,031.0,23.3,0000.0,0005.05,0002.99,0002.14
2023-08-05 04:02:00,SystemResetWarning,0833.8,4.99,000.00,029.2,026.1,000.0,037.5,030.7,23.2,0000.0,0005.01,0002.98,0002.14
2023-08-05 04:03:00,SystemResetWarning,0833.8,5.01,000.00,029.2,025.5,000.0,037.4,030.6,23.5,0000.0,0004.91,0002.93,0002.13
2023-08-05 04:04:00,SystemResetWarning,0833.8,5.02,000.00,029.1,025.6,000.0,037.4,030.4,23.5,0000.0,0005.10,0002.98,0002.15
2023-08-05 04:05:00,SystemResetWarning,0833.8,5.00,000.00,029.0,026.0,000.0,037.4,030.4,23.5,0000.0,0005.74,0002.98,0002.17
2023-08-05 04:06:00,SystemResetWarning,0833.8,5.01,000.00,029.0,026.3,000.0,037.5,030.5,24.3,0000.0,0007.41,0003.09,0002.19
2023-08-05 04:07:00,SystemResetWarning,0833.8,5.00,000.00,029.0,026.7,000.0,037.5,030.6,24.9,0000.0,0007.92,0003.15,0002.20
2023-08-05 04:08:00,SystemResetWarning,0833.8,5.00,000.00,029.1,027.0,000.0,037.5,030.7,25.6,0000.0,0008.06,0003.15,0002.20
2023-08-05 04:09:00,SystemResetWarning,0833.8,5.00,000.00,029.1,027.3,000.0,037.5,030.8,25.9,0000.0,0007.97,0003.13,0002.21
2023-08-05 04:10:00,SystemResetWarning,0833.9,4.99,000.00,029.1,027.6,000.0,037.6,030.9,26.1,0000.0,0008.02,0003.13,0002.22
2023-08-05 04:11:00,SystemResetWarning,0833.9,4.99,000.00,029.2,027.8,000.0,037.6,030.9,26.0,0000.0,0007.97,0003.12,0002.22
2023-08-05 04:12:00,SystemResetWarning,0833.9,5.00,000.00,029.2,027.9,000.0,037.6,031.0,26.3,0000.0,0008.12,0003.09,0002.21
2023-08-05 04:13:00,SystemResetWarning,0834.0,5.00,000.00,029.3,028.1,000.0,037.7,031.0,26.7,0000.0,0008.16,0003.06,0002.21
2023-08-05 04:14:00,SystemResetWarning,0834.0,4.99,000.00,029.3,027.6,000.0,037.6,031.0,27.9,0000.0,0008.13,0003.01,0002.21
2023-08-05 04:15:00,SystemResetWarning,0834.0,5.00,000.00,029.3,025.9,000.0,037.5,030.7,28.3,0000.0,0008.28,0002.94,0002.19
2023-08-05 04:16:00,SystemResetWarning,0833.9,5.00,000.00,029.2,025.5,000.0,037.4,030.6,28.5,0000.0,0008.25,0002.93,0002.17
2023-08-05 04:17:00,SystemResetWarning,0834.0,5.01,000.00,029.1,025.7,000.0,037.5,030.4,28.8,0000.0,0007.33,0002.88,0002.14
2023-08-05 04:18:00,SystemResetWarning,0834.0,5.00,000.00,029.1,026.0,000.0,037.5,030.5,28.6,0000.0,0006.29,0002.74,0002.12
2023-08-05 04:19:00,SystemResetWarning,0834.0,4.99,000.00,029.1,026.4,000.0,037.5,030.6,28.2,0000.0,0005.64,0002.69,0002.11
2023-08-05 04:20:00,SystemResetWarning,0834.1,5.01,000.00,029.1,026.8,000.0,037.6,030.7,27.7,0000.0,0005.56,0002.68,0002.11
2023-08-05 04:21:00,SystemResetWarning,0834.1,5.01,000.00,029.1,027.1,000.0,037.6,030.8,28.2,0000.0,0005.54,0002.70,0002.10
2023-08-05 04:22:00,SystemResetWarning,0834.1,5.00,000.00,029.1,027.4,000.0,037.6,030.8,28.6,0000.0,0005.78,0002.74,0002.10
2023-08-05 04:23:00,SystemResetWarning,0834.2,5.00,000.00,029.2,027.6,000.0,037.6,030.9,28.9,0000.0,0005.51,0002.79,0002.12
2023-08-05 04:24:00,SystemResetWarning,0834.2,5.00,000.00,029.2,027.8,000.0,037.6,031.0,29.7,0000.0,0005.35,0002.90,0002.16
2023-08-05 04:25:00,SystemResetWarning,0834.2,5.00,000.00,029.3,028.0,000.0,037.7,031.0,29.9,0000.0,0005.68,0002.97,0002.20
2023-08-05 04:26:00,SystemResetWarning,0834.2,5.00,000.00,029.3,027.8,000.0,037.7,031.0,30.0,0000.0,0005.88,0003.06,0002.24
2023-08-05 04:27:00,SystemResetWarning,0834.2,4.99,000.00,029.3,026.0,000.0,037.5,030.8,30.0,0000.0,0005.78,0003.08,0002.28
2023-08-05 04:28:00,SystemResetWarning,0834.2,5.00,000.00,029.2,024.5,000.0,037.4,030.5,30.0,0000.0,0005.82,0003.12,0002.34
2023-08-05 04:29:00,SystemResetWarning,0834.1,5.00,000.00,029.1,024.4,000.0,037.4,030.3,30.0,0000.0,0006.16,0003.17,0002.42
2023-08-05 04:30:00,SystemResetWarning,0834.1,5.01,000.00,029.0,024.8,000.0,037.4,030.2,30.2,0000.0,0006.30,0003.23,0002.50
2023-08-05 04:31:00,SystemResetWarning,0834.1,5.01,000.00,028.9,025.3,000.0,037.4,030.3,30.6,0000.0,0006.46,0003.29,0002.59
2023-08-05 04:32:00,SystemResetWarning,0834.2,5.00,000.00,028.9,025.8,000.0,037.4,030.4,30.8,0000.0,0006.84,0003.35,0002.67
2023-08-05 04:33:00,SystemResetWarning,0834.2,5.00,000.00,028.9,026.2,000.0,037.5,030.5,31.2,0000.0,0007.11,0003.43,0002.77
2023-08-05 04:34:00,SystemResetWarning,0834.2,5.00,000.00,028.9,026.6,000.0,037.5,030.5,31.5,0000.0,0007.55,0003.48,0002.87
2023-08-05 04:35:00,SystemResetWarning,0834.2,4.99,000.00,028.9,026.9,000.0,037.5,030.6,31.6,0000.0,0007.92,0003.54,0002.96
2023-08-05 04:36:00,SystemResetWarning,0834.2,5.00,000.00,029.0,027.2,000.0,037.5,030.7,31.7,0000.0,0008.11,0003.63,0003.08
2023-08-05 04:37:00,SystemResetWarning,0834.2,5.00,000.00,029.0,027.5,000.0,037.5,030.7,31.7,0000.0,0008.02,0003.73,0003.17
2023-08-05 04:38:00,SystemResetWarning,0834.2,5.01,000.00,029.0,027.7,000.0,037.5,030.8,31.8,0000.0,0008.60,0003.83,0003.24
2023-08-05 04:39:00,SystemResetWarning,0834.2,5.00,000.00,029.1,027.8,000.0,037.5,030.9,31.8,0000.0,0009.69,0003.89,0003.29
2023-08-05 04:40:00,SystemResetWarning,0834.2,5.00,000.00,029.1,028.0,000.0,037.6,030.9,31.7,0000.0,0009.64,0003.93,0003.33
2023-08-05 04:41:00,SystemResetWarning,0834.2,4.99,000.00,029.2,028.1,000.0,037.6,031.0,31.6,0000.0,0009.70,0003.97,0003.36
2023-08-05 04:42:00,SystemResetWarning,0834.2,4.99,000.00,029.2,028.2,000.0,037.6,031.0,31.7,0000.0,0009.87,0004.00,0003.39
2023-08-05 04:43:00,SystemResetWarning,0834.2,5.00,000.00,029.3,027.2,000.0,037.6,030.9,31.6,0000.0,0010.34,0004.05,0003.43
2023-08-05 04:44:00,SystemResetWarning,0834.2,5.01,000.00,029.2,025.6,000.0,037.4,030.7,31.5,0000.0,0010.91,0004.05,0003.46
2023-08-05 04:45:00,SystemResetWarning,0834.1,5.01,000.00,029.1,025.3,000.0,037.4,030.5,31.6,0000.0,0010.86,0004.10,0003.49
2023-08-05 04:46:00,SystemResetWarning,0834.1,5.01,000.00,029.0,025.6,000.0,037.4,030.3,31.7,0000.0,0010.69,0004.15,0003.53
2023-08-05 04:47:00,SystemResetWarning,0834.1,5.00,000.00,029.0,025.9,000.0,037.5,030.4,31.7,0000.0,0010.75,0004.16,0003.56
2023-08-05 04:48:00,SystemResetWarning,0834.1,4.99,000.00,029.0,026.3,000.0,037.5,030.5,31.7,0000.0,0010.90,0004.19,0003.58
2023-08-05 04:49:00,SystemResetWarning,0834.1,4.99,000.00,029.0,026.7,000.0,037.5,030.6,31.7,0000.0,0010.97,0004.22,0003.60
2023-08-05 04:50:00,SystemResetWarning,0834.2,5.00,000.00,029.0,027.0,000.0,037.5,030.7,31.5,0000.0,0010.18,0004.26,0003.63
2023-08-05 04:51:00,SystemResetWarning,0834.2,5.00,000.00,029.1,027.3,000.0,037.5,030.8,31.5,0000.0,0010.44,0004.31,0003.67
2023-08-05 04:52:00,SystemResetWarning,0834.2,5.01,000.00,029.1,027.5,000.0,037.6,030.8,31.4,0000.0,0011.21,0004.36,0003.70
2023-08-05 04:53:00,SystemResetWarning,0834.2,5.00,000.00,029.1,027.7,000.0,037.6,030.9,31.2,0000.0,0011.41,0004.43,0003.74
2023-08-05 04:54:00,SystemResetWarning,0834.2,5.00,000.00,029.2,027.9,000.0,037.6,030.9,31.0,0000.0,0011.30,0004.47,0003.78
2023-08-05 04:55:00,SystemResetWarning,0834.2,5.00,000.00,029.2,028.0,000.0,037.6,031.0,30.9,0000.0,0011.66,0004.58,0003.83
2023-08-05 04:56:00,SystemResetWarning,0834.2,5.00,000.00,029.3,028.1,000.0,037.7,031.0,30.8,0000.0,0011.66,0004.68,0003.89
2023-08-05 04:57:00,SystemResetWarning,0834.2,4.98,000.00,029.3,026.9,000.0,037.6,030.8,30.7,0000.0,0011.99,0004.76,0003.93
2023-08-05 04:58:00,SystemResetWarning,0834.2,5.02,000.00,029.2,025.5,000.0,037.5,030.6,30.8,0000.0,0012.04,0004.81,0003.96
2023-08-05 04:59:00,SystemResetWarning,0834.1,5.01,000.00,029.1,025.3,000.0,037.4,030.4,30.8,0000.0,0012.09,0004.86,0004.00
